Time,TemperatureF,DewpointF,PressureIn,WindDirection,WindDirectionDegrees,WindSpeedMPH,WindSpeedGustMPH,Humidity,HourlyPrecipIn,Conditions,Clouds,dailyrainin,SoftwareType,DateUTC
2013-03-16 00:00:00,57.9,44.1,29.84,ENE,67,0.0,0.0,60,0.00,,,0.00,WeatherCatV1.00B22,2013-03-16 04:00:00,
2013-03-16 00:01:00,57.9,44.1,29.84,ENE,67,0.0,0.0,60,0.00,,,0.00,WeatherCatV1.00B22,2013-03-16 04:01:00,
2013-03-16 00:06:00,57.9,44.1,29.83,ENE,71,0.0,1.0,60,0.00,,,0.00,WeatherCatV1.00B22,2013-03-16 04:06:00,
2013-03-16 00:11:00,58.0,44.2,29.83,ENE,71,0.0,0.0,60,0.00,,,0.00,WeatherCatV1.00B22,2013-03-16 04:11:00,
2013-03-16 00:16:00,58.0,44.2,29.84,ENE,71,0.0,0.0,60,0.00,,,0.00,WeatherCatV1.00B22,2013-03-16 04:16:00,
2013-03-16 00:21:00,58.0,44.2,29.83,NNE,14,0.0,1.0,60,0.00,,,0.00,WeatherCatV1.00B22,2013-03-16 04:21:00,
2013-03-16 00:26:00,58.0,44.2,29.83,NNE,14,0.0,1.0,60,0.00,,,0.00,WeatherCatV1.00B22,2013-03-16 04:26:00,
2013-03-16 00:31:00,58.0,44.2,29.83,NNE,14,0.0,2.0,60,0.00,,,0.00,WeatherCatV1.00B22,2013-03-16 04:31:00,
2013-03-16 00:36:00,57.9,44.1,29.83,NNE,14,0.0,1.0,60,0.00,,,0.00,WeatherCatV1.00B22,2013-03-16 04:36:00,
2013-03-16 00:41:00,57.9,44.1,29.83,NNE,14,0.0,1.0,60,0.00,,,0.00,WeatherCatV1.00B22,2013-03-16 04:41:00,
2013-03-16 00:46:00,57.9,44.1,29.83,NNW,333,0.0,2.0,60,0.00,,,0.00,WeatherCatV1.00B22,2013-03-16 04:46:00,
2013-03-16 00:51:00,58.1,44.3,29.83,WNW,292,0.0,2.0,60,0.00,,,0.00,WeatherCatV1.00B22,2013-03-16 04:51:00,
2013-03-16 00:56:00,58.1,44.3,29.83,NW,315,0.0,0.0,60,0.00,,,0.00,WeatherCatV1.00B22,2013-03-16 04:56:00,
2013-03-16 01:01:00,58.2,43.9,29.83,SW,216,0.0,4.0,59,0.00,,,0.00,WeatherCatV1.00B22,2013-03-16 05:01:00,
2013-03-16 01:06:00,58.2,44.4,29.83,NW,318,0.0,2.0,60,0.00,,,0.00,WeatherCatV1.00B22,2013-03-16 05:06:00,
2013-03-16 01:11:00,58.2,44.4,29.83,North,355,0.0,0.0,60,0.00,,,0.00,WeatherCatV1.00B22,2013-03-16 05:11:00,
2013-03-16 01:16:00,58.2,44.4,29.82,North,355,0.0,0.0,60,0.00,,,0.00,WeatherCatV1.00B22,2013-03-16 05:16:00,
2013-03-16 01:21:00,58.0,44.2,29.82,ENE,61,2.0,2.0,60,0.00,,,0.00,WeatherCatV1.00B22,2013-03-16 05:21:00,
2013-03-16 01:26:00,57.9,44.1,29.82,ENE,69,0.0,0.0,60,0.00,,,0.00,WeatherCatV1.00B22,2013-03-16 05:26:00,
2013-03-16 01:31:00,57.8,44.0,29.82,ENE,69,0.0,1.0,60,0.00,,,0.00,WeatherCatV1.00B22,2013-03-16 05:31:00,
2013-03-16 01:36:00,57.6,43.8,29.82,ENE,69,0.0,1.0,60,0.00,,,0.00,WeatherCatV1.00B22,2013-03-16 05:36:00,
2013-03-16 01:41:00,57.5,43.7,29.82,ENE,69,0.0,0.0,60,0.00,,,0.00,WeatherCatV1.00B22,2013-03-16 05:41:00,
2013-03-16 01:46:00,57.4,44.1,29.82,ENE,69,0.0,0.0,61,0.00,,,0.00,WeatherCatV1.00B22,2013-03-16 05:46:00,
2013-03-16 01:51:00,57.3,44.0,29.82,ENE,70,0.0,0.0,61,0.00,,,0.00,WeatherCatV1.00B22,2013-03-16 05:51:00,
2013-03-16 01:56:00,57.2,43.9,29.82,West,281,1.0,3.0,61,0.00,,,0.00,WeatherCatV1.00B22,2013-03-16 05:56:00,
2013-03-16 02:01:00,57.1,43.8,29.82,NNW,348,0.0,0.0,61,0.00,,,0.00,WeatherCatV1.00B22,2013-03-16 06:01:00,
2013-03-16 02:06:00,57.0,43.7,29.82,North,355,0.0,1.0,61,0.00,,,0.00,WeatherCatV1.00B22,2013-03-16 06:06:00,
2013-03-16 02:11:00,56.9,43.6,29.82,North,355,0.0,0.0,61,0.00,,,0.00,WeatherCatV1.00B22,2013-03-16 06:11:00,
2013-03-16 02:16:00,56.8,43.5,29.82,North,355,0.0,0.0,61,0.00,,,0.00,WeatherCatV1.00B22,2013-03-16 06:16:00,
2013-03-16 02:21:00,56.7,43.4,29.82,North,355,0.0,0.0,61,0.00,,,0.00,WeatherCatV1.00B22,2013-03-16 06:21:00,
2013-03-16 02:26:00,56.6,43.3,29.82,WSW,252,2.0,3.0,61,0.00,,,0.00,WeatherCatV1.00B22,2013-03-16 06:26:00,
2013-03-16 02:31:00,56.6,43.7,29.82,WSW,252,0.0,0.0,62,0.00,,,0.00,WeatherCatV1.00B22,2013-03-16 06:31:00,
2013-03-16 02:36:00,56.5,43.6,29.82,WSW,252,0.0,0.0,62,0.00,,,0.00,WeatherCatV1.00B22,2013-03-16 06:36:00,
2013-03-16 02:41:00,56.4,43.5,29.82,WSW,252,0.0,0.0,62,0.00,,,0.00,WeatherCatV1.00B22,2013-03-16 06:41:00,
2013-03-16 02:46:00,56.4,43.5,29.83,WSW,252,0.0,0.0,62,0.00,,,0.00,WeatherCatV1.00B22,2013-03-16 06:46:00,
2013-03-16 02:51:00,56.3,43.4,29.83,WSW,252,0.0,0.0,62,0.00,,,0.00,WeatherCatV1.00B22,2013-03-16 06:51:00,
2013-03-16 02:56:00,56.1,43.3,29.83,West,259,0.0,1.0,62,0.00,,,0.00,WeatherCatV1.00B22,2013-03-16 06:56:00,
2013-03-16 03:01:00,56.0,43.6,29.83,West,259,0.0,0.0,63,0.00,,,0.00,WeatherCatV1.00B22,2013-03-16 07:01:00,
2013-03-16 03:06:00,55.9,43.5,29.83,West,259,0.0,0.0,63,0.00,,,0.00,WeatherCatV1.00B22,2013-03-16 07:06:00,
2013-03-16 03:11:00,55.9,43.5,29.83,West,259,0.0,1.0,63,0.00,,,0.00,WeatherCatV1.00B22,2013-03-16 07:11:00,
2013-03-16 03:16:00,55.9,43.5,29.83,WSW,240,1.0,3.0,63,0.00,,,0.00,WeatherCatV1.00B22,2013-03-16 07:16:00,
2013-03-16 03:21:00,55.9,43.9,29.83,SW,223,1.0,2.0,64,0.00,,,0.00,WeatherCatV1.00B22,2013-03-16 07:21:00,
2013-03-16 03:26:00,55.9,43.9,29.83,WSW,237,1.0,1.0,64,0.00,,,0.00,WeatherCatV1.00B22,2013-03-16 07:26:00,
2013-03-16 03:31:00,55.8,43.8,29.83,WSW,244,3.0,3.0,64,0.00,,,0.00,WeatherCatV1.00B22,2013-03-16 07:31:00,
2013-03-16 03:36:00,55.8,43.8,29.82,WSW,244,0.0,1.0,64,0.00,,,0.00,WeatherCatV1.00B22,2013-03-16 07:36:00,
2013-03-16 03:41:00,55.8,43.8,29.82,WNW,288,1.0,2.0,64,0.00,,,0.00,WeatherCatV1.00B22,2013-03-16 07:41:00,
2013-03-16 03:46:00,55.8,43.8,29.82,WNW,299,0.0,0.0,64,0.00,,,0.00,WeatherCatV1.00B22,2013-03-16 07:46:00,
2013-03-16 03:51:00,55.7,43.7,29.82,WNW,299,0.0,0.0,64,0.00,,,0.00,WeatherCatV1.00B22,2013-03-16 07:51:00,
2013-03-16 03:56:00,55.6,43.2,29.82,WNW,299,0.0,0.0,63,0.00,,,0.00,WeatherCatV1.00B22,2013-03-16 07:56:00,
2013-03-16 04:01:00,55.5,43.5,29.82,WNW,299,0.0,0.0,64,0.00,,,0.00,WeatherCatV1.00B22,2013-03-16 08:01:00,
2013-03-16 04:06:00,55.5,43.5,29.82,WNW,299,0.0,0.0,64,0.00,,,0.00,WeatherCatV1.00B22,2013-03-16 08:06:00,
2013-03-16 04:11:00,55.5,43.1,29.81,WNW,299,0.0,0.0,63,0.00,,,0.00,WeatherCatV1.00B22,2013-03-16 08:11:00,
2013-03-16 04:16:00,55.5,43.5,29.81,WNW,296,0.0,1.0,64,0.00,,,0.00,WeatherCatV1.00B22,2013-03-16 08:16:00,
2013-03-16 04:21:00,55.5,43.1,29.81,WNW,296,0.0,1.0,63,0.00,,,0.00,WeatherCatV1.00B22,2013-03-16 08:21:00,
2013-03-16 04:26:00,55.7,43.3,29.81,SSW,213,1.0,2.0,63,0.00,,,0.00,WeatherCatV1.00B22,2013-03-16 08:26:00,
2013-03-16 04:31:00,55.7,43.3,29.81,SSW,213,0.0,0.0,63,0.00,,,0.00,WeatherCatV1.00B22,2013-03-16 08:31:00,
2013-03-16 04:36:00,55.8,43.4,29.81,NE,38,0.0,1.0,63,0.00,,,0.00,WeatherCatV1.00B22,2013-03-16 08:36:00,
2013-03-16 04:41:00,55.9,43.1,29.81,NE,39,0.0,0.0,62,0.00,,,0.00,WeatherCatV1.00B22,2013-03-16 08:41:00,
2013-03-16 04:46:00,55.9,43.5,29.80,NE,38,0.0,1.0,63,0.00,,,0.00,WeatherCatV1.00B22,2013-03-16 08:46:00,
2013-03-16 04:51:00,55.9,43.5,29.80,NE,38,0.0,0.0,63,0.00,,,0.00,WeatherCatV1.00B22,2013-03-16 08:51:00,
2013-03-16 04:56:00,55.8,43.4,29.80,NE,39,0.0,0.0,63,0.00,,,0.00,WeatherCatV1.00B22,2013-03-16 08:56:00,
2013-03-16 05:01:00,55.6,43.2,29.80,North,350,0.0,1.0,63,0.00,,,0.00,WeatherCatV1.00B22,2013-03-16 09:01:00,
2013-03-16 05:06:00,55.5,43.5,29.80,North,350,0.0,2.0,64,0.00,,,0.00,WeatherCatV1.00B22,2013-03-16 09:06:00,
2013-03-16 05:11:00,55.4,43.4,29.80,North,349,0.0,1.0,64,0.00,,,0.00,WeatherCatV1.00B22,2013-03-16 09:11:00,
2013-03-16 05:16:00,55.3,43.7,29.80,ESE,111,0.0,0.0,65,0.00,,,0.00,WeatherCatV1.00B22,2013-03-16 09:16:00,
2013-03-16 05:21:00,55.1,43.5,29.80,ESE,111,0.0,0.0,65,0.00,,,0.00,WeatherCatV1.00B22,2013-03-16 09:21:00,
2013-03-16 05:26:00,54.9,43.4,29.81,ESE,111,0.0,0.0,65,0.00,,,0.00,WeatherCatV1.00B22,2013-03-16 09:26:00,
2013-03-16 05:31:00,54.8,43.3,29.81,ESE,111,0.0,0.0,65,0.00,,,0.00,WeatherCatV1.00B22,2013-03-16 09:31:00,
2013-03-16 05:36:00,54.6,43.5,29.81,ESE,111,0.0,0.0,66,0.00,,,0.00,WeatherCatV1.00B22,2013-03-16 09:36:00,
2013-03-16 05:41:00,54.4,43.3,29.81,SE,138,0.0,0.0,66,0.00,,,0.00,WeatherCatV1.00B22,2013-03-16 09:41:00,
2013-03-16 05:46:00,54.2,43.5,29.81,SE,138,0.0,0.0,67,0.00,,,0.00,WeatherCatV1.00B22,2013-03-16 09:46:00,
2013-03-16 05:51:00,54.0,43.3,29.81,NW,311,0.0,2.0,67,0.00,,,0.00,WeatherCatV1.00B22,2013-03-16 09:51:00,
2013-03-16 05:56:00,53.8,43.1,29.81,NW,311,0.0,0.0,67,0.00,,,0.00,WeatherCatV1.00B22,2013-03-16 09:56:00,
2013-03-16 06:01:00,53.7,43.0,29.81,NW,311,0.0,0.0,67,0.00,,,0.00,WeatherCatV1.00B22,2013-03-16 10:01:00,
2013-03-16 06:06:00,53.7,43.0,29.81,NW,311,0.0,0.0,67,0.00,,,0.00,WeatherCatV1.00B22,2013-03-16 10:06:00,
2013-03-16 06:11:00,53.6,42.9,29.82,NW,311,0.0,1.0,67,0.00,,,0.00,WeatherCatV1.00B22,2013-03-16 10:11:00,
2013-03-16 06:16:00,53.6,43.3,29.82,West,281,1.0,2.0,68,0.00,,,0.00,WeatherCatV1.00B22,2013-03-16 10:16:00,
2013-03-16 06:21:00,53.6,43.3,29.82,WSW,238,1.0,3.0,68,0.00,,,0.00,WeatherCatV1.00B22,2013-03-16 10:21:00,
2013-03-16 06:26:00,53.6,43.3,29.82,SW,228,2.0,2.0,68,0.00,,,0.00,WeatherCatV1.00B22,2013-03-16 10:26:00,
2013-03-16 06:31:00,53.6,43.3,29.82,SW,228,0.0,0.0,68,0.00,,,0.00,WeatherCatV1.00B22,2013-03-16 10:31:00,
2013-03-16 06:36:00,53.6,43.3,29.82,SW,228,0.0,1.0,68,0.00,,,0.00,WeatherCatV1.00B22,2013-03-16 10:36:00,
2013-03-16 06:41:00,53.6,43.7,29.82,WSW,244,1.0,2.0,69,0.00,,,0.00,WeatherCatV1.00B22,2013-03-16 10:41:00,
2013-03-16 06:46:00,53.5,43.6,29.82,WSW,252,1.0,2.0,69,0.00,,,0.00,WeatherCatV1.00B22,2013-03-16 10:46:00,
2013-03-16 06:51:00,53.5,43.6,29.83,WSW,252,0.0,2.0,69,0.00,,,0.00,WeatherCatV1.00B22,2013-03-16 10:51:00,
2013-03-16 06:56:00,53.4,43.5,29.83,WSW,252,1.0,2.0,69,0.00,,,0.00,WeatherCatV1.00B22,2013-03-16 10:56:00,
2013-03-16 07:01:00,53.3,43.4,29.83,WSW,252,2.0,2.0,69,0.00,,,0.00,WeatherCatV1.00B22,2013-03-16 11:01:00,
2013-03-16 07:06:00,53.2,43.7,29.83,West,262,1.0,1.0,70,0.00,,,0.00,WeatherCatV1.00B22,2013-03-16 11:06:00,
2013-03-16 07:11:00,53.1,43.6,29.83,West,262,0.0,2.0,70,0.00,,,0.00,WeatherCatV1.00B22,2013-03-16 11:11:00,
2013-03-16 07:16:00,53.0,43.5,29.83,West,260,0.0,3.0,70,0.00,,,0.00,WeatherCatV1.00B22,2013-03-16 11:16:00,
2013-03-16 07:21:00,52.8,44.0,29.83,WSW,256,2.0,2.0,72,0.00,,,0.00,WeatherCatV1.00B22,2013-03-16 11:21:00,
2013-03-16 07:26:00,52.7,43.9,29.83,West,262,1.0,2.0,72,0.00,,,0.00,WeatherCatV1.00B22,2013-03-16 11:26:00,
2013-03-16 07:31:00,52.4,44.0,29.84,West,278,1.0,3.0,73,0.00,,,0.00,WeatherCatV1.00B22,2013-03-16 11:31:00,
2013-03-16 07:36:00,52.2,43.8,29.84,WSW,246,2.0,3.0,73,0.00,,,0.00,WeatherCatV1.00B22,2013-03-16 11:36:00,
2013-03-16 07:41:00,52.0,43.6,29.84,WSW,246,1.0,2.0,73,0.00,,,0.00,WeatherCatV1.00B22,2013-03-16 11:41:00,
2013-03-16 07:46:00,51.7,43.3,29.84,WSW,244,1.0,3.0,73,0.00,,,0.00,WeatherCatV1.00B22,2013-03-16 11:46:00,
2013-03-16 07:51:00,51.5,43.5,29.84,WSW,258,1.0,2.0,74,0.00,,,0.00,WeatherCatV1.00B22,2013-03-16 11:51:00,
2013-03-16 07:56:00,51.3,43.3,29.84,WSW,258,0.0,2.0,74,0.00,,,0.00,WeatherCatV1.00B22,2013-03-16 11:56:00,
2013-03-16 08:01:00,51.1,43.5,29.84,WSW,258,0.0,1.0,75,0.00,,,0.00,WeatherCatV1.00B22,2013-03-16 12:01:00,
2013-03-16 08:06:00,51.1,43.5,29.84,WSW,258,0.0,1.0,75,0.00,,,0.00,WeatherCatV1.00B22,2013-03-16 12:06:00,
2013-03-16 08:11:00,51.1,43.5,29.84,WSW,258,0.0,2.0,75,0.00,,,0.00,WeatherCatV1.00B22,2013-03-16 12:11:00,
2013-03-16 08:16:00,51.2,43.6,29.84,WSW,258,0.0,1.0,75,0.00,,,0.00,WeatherCatV1.00B22,2013-03-16 12:16:00,
2013-03-16 08:21:00,51.4,43.7,29.84,WSW,258,0.0,1.0,75,0.00,,,0.00,WeatherCatV1.00B22,2013-03-16 12:21:00,
2013-03-16 08:26:00,51.6,43.9,29.84,WSW,258,1.0,3.0,75,0.00,,,0.00,WeatherCatV1.00B22,2013-03-16 12:26:00,
2013-03-16 08:31:00,51.9,44.2,29.84,WSW,242,1.0,3.0,75,0.00,,,0.00,WeatherCatV1.00B22,2013-03-16 12:31:00,
2013-03-16 08:36:00,52.1,44.1,29.84,West,263,1.0,2.0,74,0.00,,,0.00,WeatherCatV1.00B22,2013-03-16 12:36:00,
2013-03-16 08:41:00,52.4,44.4,29.84,WSW,257,2.0,3.0,74,0.00,,,0.00,WeatherCatV1.00B22,2013-03-16 12:41:00,
2013-03-16 08:46:00,52.7,44.6,29.84,WSW,257,1.0,3.0,74,0.00,,,0.00,WeatherCatV1.00B22,2013-03-16 12:46:00,
2013-03-16 08:51:00,52.9,44.8,29.84,WSW,257,3.0,3.0,74,0.00,,,0.00,WeatherCatV1.00B22,2013-03-16 12:51:00,
2013-03-16 08:56:00,53.2,44.8,29.84,West,261,3.0,3.0,73,0.00,,,0.00,WeatherCatV1.00B22,2013-03-16 12:56:00,
2013-03-16 09:01:00,53.6,44.8,29.84,WSW,250,0.0,3.0,72,0.00,,,0.00,WeatherCatV1.00B22,2013-03-16 13:01:00,
2013-03-16 09:06:00,54.1,45.3,29.84,WSW,257,1.0,2.0,72,0.00,,,0.00,WeatherCatV1.00B22,2013-03-16 13:06:00,
2013-03-16 09:11:00,54.5,44.9,29.84,WSW,252,2.0,2.0,70,0.00,,,0.00,WeatherCatV1.00B22,2013-03-16 13:11:00,
2013-03-16 09:16:00,55.0,45.0,29.84,West,267,2.0,3.0,69,0.00,,,0.00,WeatherCatV1.00B22,2013-03-16 13:16:00,
2013-03-16 09:21:00,55.4,45.0,29.84,WSW,239,2.0,3.0,68,0.00,,,0.00,WeatherCatV1.00B22,2013-03-16 13:21:00,
2013-03-16 09:26:00,55.9,45.1,29.84,WSW,246,1.0,4.0,67,0.00,,,0.00,WeatherCatV1.00B22,2013-03-16 13:26:00,
2013-03-16 09:31:00,56.4,45.2,29.84,WSW,240,0.0,5.0,66,0.00,,,0.00,WeatherCatV1.00B22,2013-03-16 13:31:00,
2013-03-16 09:36:00,56.9,45.7,29.84,NW,311,0.0,1.0,66,0.00,,,0.00,WeatherCatV1.00B22,2013-03-16 13:36:00,
2013-03-16 09:41:00,57.5,45.0,29.84,WSW,250,5.0,6.0,63,0.00,,,0.00,WeatherCatV1.00B22,2013-03-16 13:41:00,
2013-03-16 09:46:00,58.0,45.5,29.84,NNW,341,1.0,9.0,63,0.00,,,0.00,WeatherCatV1.00B22,2013-03-16 13:46:00,
2013-03-16 09:51:00,58.4,45.9,29.84,West,278,1.0,2.0,63,0.00,,,0.00,WeatherCatV1.00B22,2013-03-16 13:51:00,
2013-03-16 09:56:00,58.9,45.9,29.83,WNW,288,1.0,6.0,62,0.00,,,0.00,WeatherCatV1.00B22,2013-03-16 13:56:00,
2013-03-16 10:01:00,59.2,45.8,29.83,West,267,2.0,4.0,61,0.00,,,0.00,WeatherCatV1.00B22,2013-03-16 14:01:00,
2013-03-16 10:07:00,59.6,45.7,29.83,WSW,244,5.0,5.0,60,0.00,,,0.00,WeatherCatV1.00B22,2013-03-16 14:07:00,
2013-03-16 10:12:00,59.9,45.5,29.83,WSW,251,3.0,7.0,59,0.00,,,0.00,WeatherCatV1.00B22,2013-03-16 14:12:00,
2013-03-16 10:17:00,60.1,45.3,29.83,SW,222,3.0,5.0,58,0.00,,,0.00,WeatherCatV1.00B22,2013-03-16 14:17:00,
2013-03-16 10:22:00,60.3,45.5,29.83,WNW,295,5.0,6.0,58,0.00,,,0.00,WeatherCatV1.00B22,2013-03-16 14:22:00,
2013-03-16 10:26:00,60.5,45.2,29.83,WNW,282,6.0,6.0,57,0.00,,,0.00,WeatherCatV1.00B22,2013-03-16 14:26:00,
2013-03-16 10:31:00,60.8,45.5,29.83,SE,138,2.0,6.0,57,0.00,,,0.00,WeatherCatV1.00B22,2013-03-16 14:31:00,
2013-03-16 10:36:00,60.9,45.6,29.83,SSE,150,0.0,5.0,57,0.00,,,0.00,WeatherCatV1.00B22,2013-03-16 14:36:00,
2013-03-16 10:41:00,61.1,45.7,29.83,WSW,246,0.0,7.0,57,0.00,,,0.00,WeatherCatV1.00B22,2013-03-16 14:41:00,
2013-03-16 10:46:00,61.4,45.6,29.83,SW,234,5.0,6.0,56,0.00,,,0.00,WeatherCatV1.00B22,2013-03-16 14:46:00,
2013-03-16 10:51:00,61.7,45.8,29.83,West,260,3.0,7.0,56,0.00,,,0.00,WeatherCatV1.00B22,2013-03-16 14:51:00,
2013-03-16 10:56:00,62.0,45.2,29.83,WSW,253,4.0,5.0,54,0.00,,,0.00,WeatherCatV1.00B22,2013-03-16 14:56:00,
2013-03-16 11:01:00,62.2,45.8,29.83,West,265,0.0,4.0,55,0.00,,,0.00,WeatherCatV1.00B22,2013-03-16 15:01:00,
2013-03-16 11:06:00,62.5,45.6,29.83,NE,46,4.0,6.0,54,0.00,,,0.00,WeatherCatV1.00B22,2013-03-16 15:06:00,
2013-03-16 11:11:00,62.6,45.2,29.82,WNW,296,4.0,9.0,53,0.00,,,0.00,WeatherCatV1.00B22,2013-03-16 15:11:00,
2013-03-16 11:16:00,62.9,45.5,29.82,NW,306,3.0,5.0,53,0.00,,,0.00,WeatherCatV1.00B22,2013-03-16 15:16:00,
2013-03-16 11:21:00,63.2,45.3,29.82,SW,223,3.0,4.0,52,0.00,,,0.00,WeatherCatV1.00B22,2013-03-16 15:21:00,
2013-03-16 11:26:00,63.6,45.1,29.82,West,272,7.0,7.0,51,0.00,,,0.00,WeatherCatV1.00B22,2013-03-16 15:26:00,
2013-03-16 11:31:00,64.1,45.1,29.81,NW,315,2.0,7.0,50,0.00,,,0.00,WeatherCatV1.00B22,2013-03-16 15:31:00,
2013-03-16 11:36:00,64.7,44.6,29.81,SSW,194,0.0,4.0,48,0.00,,,0.00,WeatherCatV1.00B22,2013-03-16 15:36:00,
2013-03-16 11:41:00,65.0,44.3,29.81,SSW,205,4.0,4.0,47,0.00,,,0.00,WeatherCatV1.00B22,2013-03-16 15:41:00,
2013-03-16 11:46:00,65.2,45.0,29.81,NNW,337,0.0,8.0,48,0.00,,,0.00,WeatherCatV1.00B22,2013-03-16 15:46:00,
2013-03-16 11:51:00,65.5,44.2,29.81,West,279,4.0,7.0,46,0.00,,,0.00,WeatherCatV1.00B22,2013-03-16 15:51:00,
2013-03-16 11:56:00,65.7,44.9,29.80,SSW,206,3.0,4.0,47,0.00,,,0.00,WeatherCatV1.00B22,2013-03-16 15:56:00,
2013-03-16 12:02:00,66.3,45.5,29.80,NE,34,2.0,3.0,47,0.00,,,0.00,WeatherCatV1.00B22,2013-03-16 16:02:00,
2013-03-16 12:07:00,66.7,45.3,29.80,West,265,0.0,2.0,46,0.00,,,0.00,WeatherCatV1.00B22,2013-03-16 16:07:00,
2013-03-16 12:12:00,67.0,45.0,29.79,SSE,161,1.0,5.0,45,0.00,,,0.00,WeatherCatV1.00B22,2013-03-16 16:12:00,
2013-03-16 12:17:00,67.3,44.0,29.79,NE,47,3.0,7.0,43,0.00,,,0.00,WeatherCatV1.00B22,2013-03-16 16:17:00,
2013-03-16 12:22:00,67.3,44.6,29.79,East,80,0.0,2.0,44,0.00,,,0.00,WeatherCatV1.00B22,2013-03-16 16:22:00,
2013-03-16 12:27:00,67.5,44.8,29.78,WSW,242,7.0,7.0,44,0.00,,,0.00,WeatherCatV1.00B22,2013-03-16 16:27:00,
2013-03-16 12:32:00,68.2,44.8,29.78,WSW,249,5.0,6.0,43,0.00,,,0.00,WeatherCatV1.00B22,2013-03-16 16:32:00,
2013-03-16 12:37:00,68.7,45.3,29.78,West,259,4.0,6.0,43,0.00,,,0.00,WeatherCatV1.00B22,2013-03-16 16:37:00,
2013-03-16 12:42:00,69.3,45.8,29.78,WSW,257,4.0,5.0,43,0.00,,,0.00,WeatherCatV1.00B22,2013-03-16 16:42:00,
2013-03-16 12:47:00,70.1,45.3,29.78,North,350,4.0,9.0,41,0.00,,,0.00,WeatherCatV1.00B22,2013-03-16 16:47:00,
2013-03-16 12:52:00,70.6,47.0,29.78,North,5,1.0,4.0,43,0.00,,,0.00,WeatherCatV1.00B22,2013-03-16 16:52:00,
2013-03-16 12:57:00,71.0,46.1,29.78,West,266,3.0,8.0,41,0.00,,,0.00,WeatherCatV1.00B22,2013-03-16 16:57:00,
2013-03-16 13:02:00,71.2,45.6,29.78,WNW,286,3.0,6.0,40,0.00,,,0.00,WeatherCatV1.00B22,2013-03-16 17:02:00,
2013-03-16 13:07:00,71.5,45.9,29.77,NW,320,2.0,7.0,40,0.00,,,0.00,WeatherCatV1.00B22,2013-03-16 17:07:00,
2013-03-16 13:12:00,72.0,45.7,29.77,SW,215,3.0,4.0,39,0.00,,,0.00,WeatherCatV1.00B22,2013-03-16 17:12:00,
2013-03-16 13:17:00,72.5,46.1,29.77,WNW,295,2.0,10.0,39,0.00,,,0.00,WeatherCatV1.00B22,2013-03-16 17:17:00,
2013-03-16 13:22:00,72.7,47.0,29.77,ESE,108,2.0,8.0,40,0.00,,,0.00,WeatherCatV1.00B22,2013-03-16 17:22:00,
2013-03-16 13:27:00,73.0,47.2,29.77,NNW,336,3.0,8.0,40,0.00,,,0.00,WeatherCatV1.00B22,2013-03-16 17:27:00,
2013-03-16 13:32:00,73.1,47.3,29.77,SW,218,2.0,3.0,40,0.00,,,0.00,WeatherCatV1.00B22,2013-03-16 17:32:00,
2013-03-16 13:37:00,73.1,46.0,29.77,West,263,5.0,7.0,38,0.00,,,0.00,WeatherCatV1.00B22,2013-03-16 17:37:00,
2013-03-16 13:42:00,72.8,47.1,29.76,West,260,4.0,6.0,40,0.00,,,0.00,WeatherCatV1.00B22,2013-03-16 17:42:00,
2013-03-16 13:47:00,73.1,47.3,29.76,SW,228,0.0,6.0,40,0.00,,,0.00,WeatherCatV1.00B22,2013-03-16 17:47:00,
2013-03-16 13:52:00,74.0,47.5,29.76,ESE,112,1.0,6.0,39,0.00,,,0.00,WeatherCatV1.00B22,2013-03-16 17:52:00,
2013-03-16 13:57:00,74.3,47.0,29.76,WSW,254,3.0,4.0,38,0.00,,,0.00,WeatherCatV1.00B22,2013-03-16 17:57:00,
2013-03-16 14:02:00,74.4,47.8,29.75,WNW,292,4.0,7.0,39,0.00,,,0.00,WeatherCatV1.00B22,2013-03-16 18:02:00,
2013-03-16 14:07:00,74.5,47.2,29.75,North,0,1.0,4.0,38,0.00,,,0.00,WeatherCatV1.00B22,2013-03-16 18:07:00,
2013-03-16 14:12:00,74.7,47.4,29.75,NNE,25,2.0,5.0,38,0.00,,,0.00,WeatherCatV1.00B22,2013-03-16 18:12:00,
2013-03-16 14:17:00,75.0,47.7,29.75,NNW,339,5.0,5.0,38,0.00,,,0.00,WeatherCatV1.00B22,2013-03-16 18:17:00,
2013-03-16 14:22:00,75.2,47.8,29.74,NW,308,9.0,10.0,38,0.00,,,0.00,WeatherCatV1.00B22,2013-03-16 18:22:00,
2013-03-16 14:27:00,75.4,48.7,29.74,SE,133,1.0,3.0,39,0.00,,,0.00,WeatherCatV1.00B22,2013-03-16 18:27:00,
2013-03-16 14:32:00,75.7,47.6,29.74,SSW,192,3.0,7.0,37,0.00,,,0.00,WeatherCatV1.00B22,2013-03-16 18:32:00,
2013-03-16 14:37:00,76.0,47.8,29.73,NNE,21,4.0,4.0,37,0.00,,,0.00,WeatherCatV1.00B22,2013-03-16 18:37:00,
2013-03-16 14:42:00,76.0,48.5,29.73,SSE,161,2.0,6.0,38,0.00,,,0.00,WeatherCatV1.00B22,2013-03-16 18:42:00,
2013-03-16 14:47:00,75.7,48.3,29.73,West,269,6.0,6.0,38,0.00,,,0.00,WeatherCatV1.00B22,2013-03-16 18:47:00,
2013-03-16 14:52:00,75.2,47.8,29.73,ENE,70,1.0,6.0,38,0.00,,,0.00,WeatherCatV1.00B22,2013-03-16 18:52:00,
2013-03-16 14:57:00,74.8,47.5,29.73,WSW,250,4.0,6.0,38,0.00,,,0.00,WeatherCatV1.00B22,2013-03-16 18:57:00,
2013-03-16 15:02:00,74.7,47.4,29.72,WSW,254,4.0,7.0,38,0.00,,,0.00,WeatherCatV1.00B22,2013-03-16 19:02:00,
2013-03-16 15:07:00,74.4,47.8,29.72,ESE,123,1.0,9.0,39,0.00,,,0.00,WeatherCatV1.00B22,2013-03-16 19:07:00,
2013-03-16 15:12:00,74.3,47.7,29.72,NW,305,6.0,6.0,39,0.00,,,0.00,WeatherCatV1.00B22,2013-03-16 19:12:00,
2013-03-16 15:17:00,74.2,46.9,29.72,SW,223,0.0,9.0,38,0.00,,,0.00,WeatherCatV1.00B22,2013-03-16 19:17:00,
2013-03-16 15:22:00,74.4,47.1,29.72,WNW,295,2.0,7.0,38,0.00,,,0.00,WeatherCatV1.00B22,2013-03-16 19:22:00,
2013-03-16 15:27:00,74.6,47.3,29.72,SW,231,8.0,8.0,38,0.00,,,0.00,WeatherCatV1.00B22,2013-03-16 19:27:00,
2013-03-16 15:32:00,74.7,46.7,29.72,SSW,207,5.0,7.0,37,0.00,,,0.00,WeatherCatV1.00B22,2013-03-16 19:32:00,
2013-03-16 15:37:00,74.7,47.4,29.72,SW,232,1.0,6.0,38,0.00,,,0.00,WeatherCatV1.00B22,2013-03-16 19:37:00,
2013-03-16 15:42:00,74.6,46.6,29.72,WSW,244,1.0,7.0,37,0.00,,,0.00,WeatherCatV1.00B22,2013-03-16 19:42:00,
2013-03-16 15:47:00,74.5,46.5,29.72,WSW,243,4.0,8.0,37,0.00,,,0.00,WeatherCatV1.00B22,2013-03-16 19:47:00,
2013-03-16 15:52:00,74.6,45.9,29.72,ESE,113,1.0,7.0,36,0.00,,,0.00,WeatherCatV1.00B22,2013-03-16 19:52:00,
2013-03-16 15:57:00,74.4,45.7,29.72,WNW,300,1.0,5.0,36,0.00,,,0.00,WeatherCatV1.00B22,2013-03-16 19:57:00,
2013-03-16 16:02:00,74.1,46.1,29.72,West,263,4.0,9.0,37,0.00,,,0.00,WeatherCatV1.00B22,2013-03-16 20:02:00,
2013-03-16 16:07:00,74.3,45.6,29.72,WSW,247,3.0,8.0,36,0.00,,,0.00,WeatherCatV1.00B22,2013-03-16 20:07:00,
2013-03-16 16:12:00,74.5,45.0,29.71,SW,233,6.0,6.0,35,0.00,,,0.00,WeatherCatV1.00B22,2013-03-16 20:12:00,
2013-03-16 16:17:00,74.4,44.9,29.71,WSW,239,3.0,8.0,35,0.00,,,0.00,WeatherCatV1.00B22,2013-03-16 20:17:00,
2013-03-16 16:22:00,74.3,44.9,29.71,NW,315,2.0,3.0,35,0.00,,,0.00,WeatherCatV1.00B22,2013-03-16 20:22:00,
2013-03-16 16:27:00,74.3,44.9,29.71,WSW,242,5.0,11.0,35,0.00,,,0.00,WeatherCatV1.00B22,2013-03-16 20:27:00,
2013-03-16 16:32:00,74.3,44.1,29.71,SW,215,0.0,5.0,34,0.00,,,0.00,WeatherCatV1.00B22,2013-03-16 20:32:00,
2013-03-16 16:37:00,74.4,44.2,29.71,SE,144,1.0,7.0,34,0.00,,,0.00,WeatherCatV1.00B22,2013-03-16 20:37:00,
2013-03-16 16:42:00,74.4,44.2,29.70,West,261,1.0,3.0,34,0.00,,,0.00,WeatherCatV1.00B22,2013-03-16 20:42:00,
2013-03-16 16:47:00,74.5,44.3,29.71,WSW,242,4.0,5.0,34,0.00,,,0.00,WeatherCatV1.00B22,2013-03-16 20:47:00,
2013-03-16 16:52:00,74.6,43.6,29.71,SSW,199,2.0,3.0,33,0.00,,,0.00,WeatherCatV1.00B22,2013-03-16 20:52:00,
2013-03-16 16:57:00,74.5,44.3,29.71,West,259,5.0,5.0,34,0.00,,,0.00,WeatherCatV1.00B22,2013-03-16 20:57:00,
2013-03-16 17:02:00,74.5,43.5,29.70,South,181,4.0,6.0,33,0.00,,,0.00,WeatherCatV1.00B22,2013-03-16 21:02:00,
2013-03-16 17:07:00,74.4,42.6,29.71,SSW,198,3.0,9.0,32,0.00,,,0.00,WeatherCatV1.00B22,2013-03-16 21:07:00,
2013-03-16 17:12:00,74.3,43.3,29.71,WNW,295,6.0,9.0,33,0.00,,,0.00,WeatherCatV1.00B22,2013-03-16 21:12:00,
2013-03-16 17:17:00,74.2,42.4,29.70,WSW,245,3.0,11.0,32,0.00,,,0.00,WeatherCatV1.00B22,2013-03-16 21:17:00,
2013-03-16 17:22:00,74.1,42.3,29.71,South,173,2.0,13.0,32,0.00,,,0.00,WeatherCatV1.00B22,2013-03-16 21:22:00,
2013-03-16 17:27:00,74.0,42.3,29.71,NNW,335,4.0,5.0,32,0.00,,,0.00,WeatherCatV1.00B22,2013-03-16 21:27:00,
2013-03-16 17:32:00,73.9,41.3,29.71,WSW,242,7.0,7.0,31,0.00,,,0.00,WeatherCatV1.00B22,2013-03-16 21:32:00,
2013-03-16 17:37:00,73.8,40.4,29.70,NNE,25,6.0,6.0,30,0.00,,,0.00,WeatherCatV1.00B22,2013-03-16 21:37:00,
2013-03-16 17:42:00,73.7,40.3,29.71,WSW,243,4.0,7.0,30,0.00,,,0.00,WeatherCatV1.00B22,2013-03-16 21:42:00,
2013-03-16 17:47:00,73.7,41.2,29.71,SW,217,9.0,11.0,31,0.00,,,0.00,WeatherCatV1.00B22,2013-03-16 21:47:00,
2013-03-16 17:52:00,73.5,41.0,29.71,WSW,240,0.0,5.0,31,0.00,,,0.00,WeatherCatV1.00B22,2013-03-16 21:52:00,
2013-03-16 17:57:00,73.4,40.9,29.71,West,260,4.0,10.0,31,0.00,,,0.00,WeatherCatV1.00B22,2013-03-16 21:57:00,
2013-03-16 18:02:00,73.3,40.0,29.71,WSW,247,3.0,8.0,30,0.00,,,0.00,WeatherCatV1.00B22,2013-03-16 22:02:00,
2013-03-16 18:07:00,73.3,40.0,29.71,NE,36,0.0,3.0,30,0.00,,,0.00,WeatherCatV1.00B22,2013-03-16 22:07:00,
2013-03-16 18:12:00,73.2,40.7,29.71,NNW,328,5.0,6.0,31,0.00,,,0.00,WeatherCatV1.00B22,2013-03-16 22:12:00,
2013-03-16 18:17:00,73.0,40.6,29.71,North,9,5.0,8.0,31,0.00,,,0.00,WeatherCatV1.00B22,2013-03-16 22:17:00,
2013-03-16 18:22:00,72.8,41.2,29.71,NNE,16,1.0,3.0,32,0.00,,,0.00,WeatherCatV1.00B22,2013-03-16 22:22:00,
2013-03-16 18:27:00,72.6,40.2,29.71,SSW,204,3.0,10.0,31,0.00,,,0.00,WeatherCatV1.00B22,2013-03-16 22:27:00,
2013-03-16 18:32:00,72.5,40.1,29.71,SW,226,1.0,6.0,31,0.00,,,0.00,WeatherCatV1.00B22,2013-03-16 22:32:00,
2013-03-16 18:37:00,72.4,40.9,29.72,SSW,195,2.0,7.0,32,0.00,,,0.00,WeatherCatV1.00B22,2013-03-16 22:37:00,
2013-03-16 18:42:00,72.2,39.9,29.72,NW,317,0.0,6.0,31,0.00,,,0.00,WeatherCatV1.00B22,2013-03-16 22:42:00,
2013-03-16 18:47:00,72.1,40.6,29.72,SSW,205,2.0,4.0,32,0.00,,,0.00,WeatherCatV1.00B22,2013-03-16 22:47:00,
2013-03-16 18:52:00,71.9,41.2,29.72,SSW,198,4.0,7.0,33,0.00,,,0.00,WeatherCatV1.00B22,2013-03-16 22:52:00,
2013-03-16 18:57:00,71.8,41.1,29.72,West,279,4.0,4.0,33,0.00,,,0.00,WeatherCatV1.00B22,2013-03-16 22:57:00,
2013-03-16 19:02:00,71.7,40.3,29.72,NW,315,0.0,1.0,32,0.00,,,0.00,WeatherCatV1.00B22,2013-03-16 23:02:00,
2013-03-16 19:07:00,71.5,40.9,29.73,South,184,1.0,3.0,33,0.00,,,0.00,WeatherCatV1.00B22,2013-03-16 23:07:00,
2013-03-16 19:12:00,71.3,41.5,29.73,WSW,255,0.0,7.0,34,0.00,,,0.00,WeatherCatV1.00B22,2013-03-16 23:12:00,
2013-03-16 19:17:00,71.0,41.2,29.73,WSW,243,1.0,4.0,34,0.00,,,0.00,WeatherCatV1.00B22,2013-03-16 23:17:00,
2013-03-16 19:22:00,70.8,41.8,29.73,SSE,148,0.0,2.0,35,0.00,,,0.00,WeatherCatV1.00B22,2013-03-16 23:22:00,
2013-03-16 19:27:00,70.5,41.5,29.73,WSW,258,3.0,3.0,35,0.00,,,0.00,WeatherCatV1.00B22,2013-03-16 23:27:00,
2013-03-16 19:32:00,70.3,42.1,29.73,WSW,258,0.0,0.0,36,0.00,,,0.00,WeatherCatV1.00B22,2013-03-16 23:32:00,
2013-03-16 19:37:00,69.9,41.7,29.73,East,84,0.0,1.0,36,0.00,,,0.00,WeatherCatV1.00B22,2013-03-16 23:37:00,
2013-03-16 19:42:00,69.6,42.2,29.73,SW,230,3.0,3.0,37,0.00,,,0.00,WeatherCatV1.00B22,2013-03-16 23:42:00,
2013-03-16 19:47:00,69.4,42.0,29.73,North,0,1.0,7.0,37,0.00,,,0.00,WeatherCatV1.00B22,2013-03-16 23:47:00,
2013-03-16 19:52:00,69.2,42.5,29.73,WSW,252,1.0,4.0,38,0.00,,,0.00,WeatherCatV1.00B22,2013-03-16 23:52:00,
2013-03-16 19:57:00,68.9,42.2,29.73,South,186,0.0,1.0,38,0.00,,,0.00,WeatherCatV1.00B22,2013-03-16 23:57:00,
2013-03-16 20:02:00,68.6,42.0,29.73,NW,309,0.0,1.0,38,0.00,,,0.00,WeatherCatV1.00B22,2013-03-17 00:02:00,
2013-03-16 20:07:00,68.4,42.5,29.73,NW,309,0.0,1.0,39,0.00,,,0.00,WeatherCatV1.00B22,2013-03-17 00:07:00,
2013-03-16 20:12:00,68.1,42.9,29.73,West,267,0.0,0.0,40,0.00,,,0.00,WeatherCatV1.00B22,2013-03-17 00:12:00,
2013-03-16 20:17:00,67.8,42.6,29.73,West,267,0.0,0.0,40,0.00,,,0.00,WeatherCatV1.00B22,2013-03-17 00:17:00,
2013-03-16 20:22:00,67.5,43.0,29.73,West,267,0.0,0.0,41,0.00,,,0.00,WeatherCatV1.00B22,2013-03-17 00:22:00,
2013-03-16 20:27:00,67.2,43.9,29.73,West,267,0.0,0.0,43,0.00,,,0.00,WeatherCatV1.00B22,2013-03-17 00:27:00,
2013-03-16 20:32:00,66.8,43.6,29.73,West,267,0.0,0.0,43,0.00,,,0.00,WeatherCatV1.00B22,2013-03-17 00:32:00,
2013-03-16 20:37:00,66.4,43.8,29.74,West,267,0.0,0.0,44,0.00,,,0.00,WeatherCatV1.00B22,2013-03-17 00:37:00,
2013-03-16 20:42:00,66.0,43.5,29.74,NNE,30,0.0,0.0,44,0.00,,,0.00,WeatherCatV1.00B22,2013-03-17 00:42:00,
2013-03-16 20:47:00,65.6,43.1,29.74,NNE,23,0.0,1.0,44,0.00,,,0.00,WeatherCatV1.00B22,2013-03-17 00:47:00,
2013-03-16 20:52:00,65.3,43.4,29.74,NNE,23,2.0,2.0,45,0.00,,,0.00,WeatherCatV1.00B22,2013-03-17 00:52:00,
2013-03-16 20:57:00,65.0,43.7,29.74,NNW,328,4.0,4.0,46,0.00,,,0.00,WeatherCatV1.00B22,2013-03-17 00:57:00,
2013-03-16 21:02:00,64.8,43.5,29.74,North,5,1.0,1.0,46,0.00,,,0.00,WeatherCatV1.00B22,2013-03-17 01:02:00,
2013-03-16 21:07:00,64.7,42.9,29.75,North,5,1.0,2.0,45,0.00,,,0.00,WeatherCatV1.00B22,2013-03-17 01:07:00,
2013-03-16 21:12:00,64.7,42.9,29.75,North,5,0.0,1.0,45,0.00,,,0.00,WeatherCatV1.00B22,2013-03-17 01:12:00,
2013-03-16 21:17:00,64.7,42.9,29.76,North,0,1.0,2.0,45,0.00,,,0.00,WeatherCatV1.00B22,2013-03-17 01:17:00,
2013-03-16 21:22:00,64.7,42.9,29.76,North,0,0.0,0.0,45,0.00,,,0.00,WeatherCatV1.00B22,2013-03-17 01:22:00,
2013-03-16 21:27:00,64.5,42.7,29.76,North,0,0.0,0.0,45,0.00,,,0.00,WeatherCatV1.00B22,2013-03-17 01:27:00,
2013-03-16 21:32:00,64.3,43.1,29.76,North,0,0.0,0.0,46,0.00,,,0.00,WeatherCatV1.00B22,2013-03-17 01:32:00,
2013-03-16 21:37:00,64.1,42.9,29.76,North,0,0.0,0.0,46,0.00,,,0.00,WeatherCatV1.00B22,2013-03-17 01:37:00,
2013-03-16 21:42:00,64.0,43.4,29.77,North,0,0.0,0.0,47,0.00,,,0.00,WeatherCatV1.00B22,2013-03-17 01:42:00,
2013-03-16 21:47:00,63.8,43.2,29.77,North,0,0.0,0.0,47,0.00,,,0.00,WeatherCatV1.00B22,2013-03-17 01:47:00,
2013-03-16 21:52:00,63.6,43.0,29.77,North,0,0.0,0.0,47,0.00,,,0.00,WeatherCatV1.00B22,2013-03-17 01:52:00,
2013-03-16 21:57:00,63.5,42.9,29.77,North,0,0.0,0.0,47,0.00,,,0.00,WeatherCatV1.00B22,2013-03-17 01:57:00,
2013-03-16 22:02:00,63.4,43.4,29.77,North,0,0.0,1.0,48,0.00,,,0.00,WeatherCatV1.00B22,2013-03-17 02:02:00,
2013-03-16 22:07:00,63.2,43.7,29.77,NNW,331,0.0,1.0,49,0.00,,,0.00,WeatherCatV1.00B22,2013-03-17 02:07:00,
2013-03-16 22:12:00,63.1,44.2,29.77,West,276,1.0,2.0,50,0.00,,,0.00,WeatherCatV1.00B22,2013-03-17 02:12:00,
2013-03-16 22:17:00,62.8,44.4,29.78,West,260,0.0,1.0,51,0.00,,,0.00,WeatherCatV1.00B22,2013-03-17 02:17:00,
2013-03-16 22:22:00,62.5,44.1,29.78,West,260,2.0,2.0,51,0.00,,,0.00,WeatherCatV1.00B22,2013-03-17 02:22:00,
2013-03-16 22:27:00,62.2,44.4,29.78,West,260,1.0,2.0,52,0.00,,,0.00,WeatherCatV1.00B22,2013-03-17 02:27:00,
2013-03-16 22:32:00,61.8,44.5,29.78,West,260,0.0,1.0,53,0.00,,,0.00,WeatherCatV1.00B22,2013-03-17 02:32:00,
2013-03-16 22:37:00,61.6,44.8,29.79,West,260,1.0,2.0,54,0.00,,,0.00,WeatherCatV1.00B22,2013-03-17 02:37:00,
2013-03-16 22:42:00,61.2,45.4,29.79,WSW,248,2.0,3.0,56,0.00,,,0.00,WeatherCatV1.00B22,2013-03-17 02:42:00,
2013-03-16 22:47:00,60.7,44.4,29.78,WSW,248,0.0,1.0,55,0.00,,,0.00,WeatherCatV1.00B22,2013-03-17 02:47:00,
2013-03-16 22:52:00,60.4,44.2,29.78,WSW,247,0.0,0.0,55,0.00,,,0.00,WeatherCatV1.00B22,2013-03-17 02:52:00,
2013-03-16 22:57:00,60.3,44.1,29.78,WSW,247,0.0,1.0,55,0.00,,,0.00,WeatherCatV1.00B22,2013-03-17 02:57:00,
2013-03-16 23:02:00,60.2,44.9,29.79,WSW,247,2.0,3.0,57,0.00,,,0.00,WeatherCatV1.00B22,2013-03-17 03:02:00,
2013-03-16 23:07:00,59.9,45.5,29.79,WSW,247,2.0,3.0,59,0.00,,,0.00,WeatherCatV1.00B22,2013-03-17 03:07:00,
2013-03-16 23:12:00,59.5,46.0,29.79,WSW,247,0.0,2.0,61,0.00,,,0.00,WeatherCatV1.00B22,2013-03-17 03:12:00,
2013-03-16 23:17:00,59.0,46.0,29.79,WSW,247,0.0,2.0,62,0.00,,,0.00,WeatherCatV1.00B22,2013-03-17 03:17:00,
2013-03-16 23:22:00,58.6,45.6,29.79,WSW,247,1.0,2.0,62,0.00,,,0.00,WeatherCatV1.00B22,2013-03-17 03:22:00,
2013-03-16 23:27:00,58.3,45.3,29.79,WSW,247,0.0,1.0,62,0.00,,,0.00,WeatherCatV1.00B22,2013-03-17 03:27:00,
2013-03-16 23:32:00,58.0,45.1,29.79,WSW,247,0.0,0.0,62,0.00,,,0.00,WeatherCatV1.00B22,2013-03-17 03:32:00,
2013-03-16 23:37:00,57.8,44.4,29.80,WSW,247,0.0,0.0,61,0.00,,,0.00,WeatherCatV1.00B22,2013-03-17 03:37:00,
2013-03-16 23:42:00,57.7,44.8,29.80,WSW,247,1.0,2.0,62,0.00,,,0.00,WeatherCatV1.00B22,2013-03-17 03:42:00,
2013-03-16 23:47:00,57.6,44.7,29.80,WSW,247,0.0,1.0,62,0.00,,,0.00,WeatherCatV1.00B22,2013-03-17 03:47:00,
2013-03-16 23:52:00,57.5,44.6,29.80,WSW,247,0.0,1.0,62,0.00,,,0.00,WeatherCatV1.00B22,2013-03-17 03:52:00,
2013-03-16 23:57:00,57.4,44.5,29.80,WSW,247,0.0,0.0,62,0.00,,,0.00,WeatherCatV1.00B22,2013-03-17 03:57:00,